User: anonymous
Location: Caltech
(34.1382°N, 118.1253°W)
Time: 00:29:35
(UTC-07:00)
Language:

Cosmos 2084 - Orbit

View from above orbital plane
View from above orbital plane
View from above satellite
View from above satellite

Ground track
Ground track

The orbit data is extracted from the following two-line orbital elements,

1 20663U 90055A   14106.13428943  .00001349  00000-0  16033-3 0   840
2 20663 062.7957 126.4360 0033481 258.2276 101.5059 14.88928338287189
Epoch (UTC): 16 April 2014 03:13:22
Eccentricity: 0.0033481
inclination: 62.7957°
perigee height: 578 km
apogee height: 624 km
right ascension of ascending node: 126.4360°
argument of perigee: 258.2276°
revolutions per day: 14.88928338
mean anomaly at epoch: 101.5059°
orbit number at epoch: 28718

The dashed part of the orbit path shows where the satellite is in the earth's shadow,  

DLR